This is the latest recevied weather packets stored in our database for station/object KB9HUO. If no packets are shown the sender has not sent any weather packets the latest 10 day(s).
| Time | Temp. | Humidity | Pressure | Rain* | Wind** | Luminosity | Snow |
|---|---|---|---|---|---|---|---|
| 1777408658 | 22.22° C | 66% | 1014.9 hPa | 0 mm | - | 161 W/m² | - |
| 1777408354 | 22.22° C | 63% | 1014.8 hPa | 0 mm | - | 160 W/m² | - |
| 1777408053 | 22.78° C | 63% | 1014.9 hPa | 0 mm | - | 160 W/m² | - |
| 1777407750 | 22.78° C | 60% | 1015 hPa | 0 mm | - | 160 W/m² | - |
| 1777407445 | 22.78° C | 61% | 1015.2 hPa | 0 mm | - | 161 W/m² | - |
| 1777407141 | 22.78° C | 60% | 1015.1 hPa | 0 mm | - | 143 W/m² | - |
| 1777406836 | 22.78° C | 61% | 1015.1 hPa | 0 mm | - | 151 W/m² | - |
| 1777406531 | 22.78° C | 63% | 1015.3 hPa | 0 mm | - | 137 W/m² | - |
| 1777406227 | 22.78° C | 59% | 1015.5 hPa | 0 mm | - | 128 W/m² | - |
| 1777405926 | 23.33° C | 60% | 1015.9 hPa | 0 mm | - | 143 W/m² | - |
| 1777405623 | 23.33° C | 59% | 1015.8 hPa | 0 mm | - | 98 W/m² | - |
| 1777405321 | 23.33° C | 65% | 1015.6 hPa | 0 mm | - | 132 W/m² | - |
| 1777405021 | 22.78° C | 61% | 1015.8 hPa | 0 mm | - | 80 W/m² | - |
| 1777404716 | 22.78° C | 62% | 1015.6 hPa | 0 mm | - | 90 W/m² | - |
| 1777404411 | 23.33° C | 61% | 1016 hPa | 0 mm | - | 109 W/m² | - |
| 1777404109 | 23.33° C | 64% | 1015.9 hPa | 0 mm | - | 104 W/m² | - |
| 1777403805 | 23.33° C | 60% | 1016.1 hPa | 0 mm | - | 231 W/m² | - |
| 1777403504 | 23.89° C | 58% | 1016.3 hPa | 0 mm | - | 132 W/m² | - |
| 1777403198 | 23.33° C | 61% | 1016.2 hPa | 0 mm | - | 739 W/m² | - |
| 1777402894 | 23.33° C | 63% | 1016 hPa | 0 mm | - | 730 W/m² | - |
| 1777402590 | 23.33° C | 60% | 1015.7 hPa | 0 mm | - | 749 W/m² | - |
| 1777402289 | 23.33° C | 59% | 1015.6 hPa | 0 mm | - | 748 W/m² | - |
| 1777401988 | 22.78° C | 63% | 1015.5 hPa | 0 mm | - | 654 W/m² | - |
| 1777401686 | 22.78° C | 61% | 1015.5 hPa | 0 mm | - | 765 W/m² | - |
| 1777401384 | 22.78° C | 62% | 1015.5 hPa | 0 mm | - | 440 W/m² | - |
* Rain latest hour (hover to see other rain measurements)
** Current wind speed in m/s (hover to see current wind gust speed)